Regional Weather Roundup
Issued by NWS

Home | Current Version | Previous Version | Graphics & Text | Print | Product List | Glossary On
Versions: 1 2 3 4 5 6 7 8 9 10 11 12 13 14 15 16 17 18 19 20 21 22 23 24 25 26 27 28 29 30 31 32 33 34 35 36 37 38 39 40 41 42 43 44 45 46 47 48 49 50
113
ASUS43 KMKX 220011
RWRWI

WISCONSIN REGIONAL WEATHER ROUNDUP
NATIONAL WEATHER SERVICE MILWAUKEE/SULLIVAN WI
600 PM CST TUE FEB 21 2017

NOTE: "FAIR" INDICATES FEW OR NO CLOUDS BELOW 12,000 FEET WITH NO
SIGNIFICANT WEATHER AND/OR OBSTRUCTIONS TO VISIBILITY.

WIZ001-002-006>008-014>016-023>028-220100-
NORTHWEST WISCONSIN

CITY           SKY/WX    TMP DP  RH WIND       PRES   REMARKS
SUPERIOR ARPT  CLOUDY    39  35  85 CALM      29.70S
6HR MIN TEMP:  39; 6HR MAX TEMP:  54;

ASHLAND        CLOUDY    46  32  58 SW5       29.72R
6HR MIN TEMP:  46; 6HR MAX TEMP:  57;

HAYWARD        CLOUDY    46  34  62 S5        29.72S
6HR MIN TEMP:  44; 6HR MAX TEMP:  52;

SIREN          MOCLDY    49  39  67 S5        29.71R
6HR MIN TEMP:  47; 6HR MAX TEMP:  55;

CUMBERLAND     CLOUDY    45  37  76 S5        29.72S
RICE LAKE      CLOUDY    48  38  68 CALM      29.74S
6HR MIN TEMP:  41; 6HR MAX TEMP:  54;

CHETEK         CLOUDY    48  39  70 CALM      29.74S
6HR MIN TEMP:  42; 6HR MAX TEMP:  54;

LADYSMITH      PTCLDY    51  34  53 S6        29.76S
6HR MIN TEMP:  40; 6HR MAX TEMP:  55;

EAU CLAIRE     CLOUDY    54  37  52 S9        29.74S
6HR MIN TEMP:  46; 6HR MAX TEMP:  59;

MENOMONIE      CLOUDY    54  38  54 S8        29.75R
6HR MIN TEMP:  43; 6HR MAX TEMP:  60;

NEW RICHMOND   CLOUDY    54  40  60 S9        29.72S
6HR MIN TEMP:  46; 6HR MAX TEMP:  59;

OSCEOLA        NOT AVBL
$$

WIZ003>005-009-010-017-018-220100-
NORTH CENTRAL WISCONSIN

CITY           SKY/WX    TMP DP  RH WIND       PRES   REMARKS
MANITOWISH WTR CLOUDY    47  30  51 S8        29.73R
6HR MIN TEMP:  46; 6HR MAX TEMP:  52;

ARBOR VITAE    MOCLDY    52  32  46 S6          N/A
6HR MIN TEMP:  50; 6HR MAX TEMP:  57;

WOODRUFF       MOCLDY    52  32  46 S6          N/A
6HR MIN TEMP:  50; 6HR MAX TEMP:  57;

RHINELANDER    PTCLDY    49  32  52 S5        29.77F
6HR MIN TEMP:  49; 6HR MAX TEMP:  56;

EAGLE RIVER    PTCLDY    48  26  42 S6        29.75S
6HR MIN TEMP:  46; 6HR MAX TEMP:  54;

LAND O LAKES   MOCLDY    49  28  44 S5        29.76F
6HR MIN TEMP:  49; 6HR MAX TEMP:  55;

PHILLIPS       PTCLDY    47  37  68 S6        29.75S
6HR MIN TEMP:  44; 6HR MAX TEMP:  53;

TOMAHAWK       PTCLDY    44  35  71 CALM      29.77F
6HR MIN TEMP:  44; 6HR MAX TEMP:  55;

MEDFORD        MOCLDY    44  38  78 S7        29.76S
6HR MIN TEMP:  39; 6HR MAX TEMP:  50;

MERRILL        NOT AVBL
$$

WIZ029-030-035-036-043>047-220100-
CENTRAL WISCONSIN

CITY           SKY/WX    TMP DP  RH WIND       PRES   REMARKS
WAUSAU         PTCLDY    50  34  54 S8        29.77F
6HR MIN TEMP:  45; 6HR MAX TEMP:  54;

MOSINEE        CLOUDY    52  36  54 S9        29.79F
MARSHFIELD     CLOUDY    53  34  48 S10       29.78F
6HR MIN TEMP:  47; 6HR MAX TEMP:  57;

STEVENS POINT  MOCLDY    53  32  45 S8        29.81F
6HR MIN TEMP:  47; 6HR MAX TEMP:  57;

WAUPACA        PTCLDY    55  38  51 SE6       29.83F
6HR MIN TEMP:  55; 6HR MAX TEMP:  64;

WAUTOMA        CLOUDY    54  36  50 S6        29.84F
6HR MIN TEMP:  54; 6HR MAX TEMP:  63;

WISC RAPIDS    CLOUDY    55  33  43 S8        29.81F
6HR MIN TEMP:  52; 6HR MAX TEMP:  60;

CAMP DOUGLAS   MOCLDY    55  32  41 SE5       29.81F
$$

WIZ011>013-019>022-031-037>040-048>050-220100-
NORTHEAST WISCONSIN

CITY           SKY/WX    TMP DP  RH WIND       PRES   REMARKS
ANTIGO         CLOUDY    40  32  71 S6        29.81S
6HR MIN TEMP:  40; 6HR MAX TEMP:  51;

SHAWANO        PTCLDY    52  36  54 S5        29.83F
6HR MIN TEMP:  52; 6HR MAX TEMP:  60;

OCONTO         CLEAR     45  36  69 SE5       29.83F
6HR MIN TEMP:  45; 6HR MAX TEMP:  59;

STURGEON BAY   CLEAR     52  37  56 S6        29.85F
6HR MIN TEMP:  52; 6HR MAX TEMP:  58;

GREEN BAY      PTCLDY    53  43  68 S5        29.85S
6HR MIN TEMP:  53; 6HR MAX TEMP:  59;

MANITOWOC      CLEAR     47  41  80 S5        29.88R
6HR MIN TEMP:  46; 6HR MAX TEMP:  59;

APPLETON       MOCLDY    48  37  66 SE7       29.84S
CLINTONVILLE   PTCLDY    50  37  62 S6        29.82F
OSHKOSH        PTCLDY    50  41  71 S6        29.85F
6HR MIN TEMP:  47; 6HR MAX TEMP:  59;

$$

WIZ032>034-041-042-053>061-220100-
SOUTHWEST WISCONSIN

CITY           SKY/WX    TMP DP  RH WIND       PRES   REMARKS
LA CROSSE      CLOUDY    57  36  45 S13       29.79F
6HR MIN TEMP:  52; 6HR MAX TEMP:  62;

SPARTA         PTCLDY    56  33  42 S5        29.82S
6HR MIN TEMP:  52; 6HR MAX TEMP:  63;

VIROQUA        CLOUDY    53  37  53 S9        29.82F
6HR MIN TEMP:  52; 6HR MAX TEMP:  59;

BOSCOBEL       CLOUDY    56  37  49 CALM      29.84F
6HR MIN TEMP:  55; 6HR MAX TEMP:  66;

PRAIRIE DU CHI CLOUDY    56  38  51 CALM      29.84F
6HR MIN TEMP:  52; 6HR MAX TEMP:  61;

PLATTEVILLE    CLOUDY    55  40  57 S6        29.87F
6HR MIN TEMP:  54; 6HR MAX TEMP:  62;

$$

WIZ056-057-062-063-064-067-068-220100-
SOUTH CENTRAL WISCONSIN

CITY           SKY/WX    TMP DP  RH WIND       PRES   REMARKS
REEDSBURG      MOCLDY    55  34  44 S5        29.84F
6HR MIN TEMP:  53; 6HR MAX TEMP:  62;

BARABOO/DELLS  MOCLDY    55  32  42 S5        29.85F
6HR MIN TEMP:  54; 6HR MAX TEMP:  62;

LONE ROCK      PTCLDY    51  38  60 CALM      29.86F
6HR MIN TEMP:  51; 6HR MAX TEMP:  64;

MINERAL POINT  CLOUDY    55  39  54 S5        29.86F
MADISON        CLOUDY    56  37  49 S5        29.86F
6HR MIN TEMP:  51; 6HR MAX TEMP:  62;

MIDDLETON      CLOUDY    57  35  42 S5        29.87S
6HR MIN TEMP:  56; 6HR MAX TEMP:  65;

WATERTOWN      PTCLDY    52  40  63 CALM      29.87F
6HR MIN TEMP:  50; 6HR MAX TEMP:  61;

MONROE         CLOUDY    55  37  50 SW5       29.88F
JANESVILLE     MOCLDY    61  32  33 SW3       29.88S
$$

WIZ051-052-058>065-066-070>072-220100-
SOUTHEAST WISCONSIN

CITY           SKY/WX    TMP DP  RH WIND       PRES   REMARKS
MILWAUKEE      PTCLDY    47  44  90 SE6       29.89S FOG
6HR MIN TEMP:  47; 6HR MAX TEMP:  66;

WAUKESHA       CLEAR     55  30  38 SW5       29.90S
MILWAUKEE/TIMM CLEAR     54  43  66 E6        29.89R
RACINE         FOG       45  43  93 SE6       29.91S VSB 1/4
6HR MIN TEMP:  45; 6HR MAX TEMP:  65;

KENOSHA        CLEAR     51  45  79 E5        29.88F
6HR MIN TEMP:  48; 6HR MAX TEMP:  65;

FOND DU LAC    PTCLDY    52  41  66 S6        29.86F
6HR MIN TEMP:  52; 6HR MAX TEMP:  60;

SHEBOYGAN      CLEAR     48  41  76 S5        29.87S
6HR MIN TEMP:  47; 6HR MAX TEMP:  63;

WEST BEND      PTCLDY    52  32  46 CALM      29.87F
JUNEAU         CLOUDY    54  40  57 S6        29.87F
6HR MIN TEMP:  49; 6HR MAX TEMP:  59;

$$

LSZ147-162-220100-
LAKE SUPERIOR

STATION/POSITION TIME  TEMP    WIND        PRES    WAVE
                       AIR SEA DIR/SP/G            HT/PER
                 (UTC) (F)     (DEG/KT/KT) (MB)    (FT/S)
DEVILS ISLAND    0000   42     150/ 10/ 11 1006.4F
PORT WING        2330   38     160/  2/  2 1006.1F
SAXON HARBOR     2340   48      CALM  /  4 1006.1R
$$

LMZ867-665-643>646-220100-
LAKE MICHIGAN

STATION/POSITION TIME  TEMP    WIND        PRES    WAVE
                       AIR SEA DIR/SP/G            HT/PER
                 (UTC) (F)     (DEG/KT/KT) (MB)    (FT/S)
CHAMBERS ISLAND  2340   50     190/  6/ 14 1009.8S
NORTHPORT PIER   2340   44     170/  1/  4 1010.2R
SISTER BAY       2335   53     190/  8/ 10   N/A
ALGOMA LAKESHORE 2155          210/  7/  8   N/A
KEWAUNEE LAKESHO 2348   39     180/ 11/ 12 1011.0R
SHEB



USA.gov is the U.S. government's official web portal to all federal, state and local government web resources and services.